| time (UTC) | temp F | wind direction | speed MPH | gust MPH | rain 1hr in | rain 24hr in | rain mn in | humidity % | barometer mb |
| 20260506033440 | 53 | 125 | 0.0 | 2.0 | 0.00 | 0.00 | 0.00 | 85 | 987.9 |
| 20260506032939 | 54 | 95 | 1.0 | 1.0 | 0.00 | 0.00 | 0.00 | 84 | 987.8 |
| 20260506032439 | 54 | 200 | 0.0 | 0.0 | 0.00 | 0.00 | 0.00 | 83 | 987.9 |
| 20260506031939 | 54 | 200 | 0.0 | 1.0 | 0.00 | 0.00 | 0.00 | 83 | 987.8 |
| 20260506031438 | 55 | 200 | 0.0 | 1.0 | 0.00 | 0.00 | 0.00 | 83 | 987.9 |
| 20260506030937 | 55 | 321 | 0.0 | 0.0 | 0.00 | 0.00 | 0.00 | 83 | 987.9 |
| 20260506030436 | 55 | 328 | 0.0 | 0.0 | 0.00 | 0.00 | 0.00 | 83 | 987.9 |
| 20260506025936 | 55 | 342 | 0.0 | 0.0 | 0.00 | 0.00 | 0.00 | 83 | 987.9 |
| 20260506025435 | 54 | 292 | 0.0 | 2.0 | 0.00 | 0.00 | 0.00 | 83 | 988.2 |
| 20260506024935 | 55 | 278 | 1.0 | 2.0 | 0.00 | 0.00 | 0.00 | 82 | 988.4 |
| 20260506024434 | 55 | 192 | 1.0 | 2.0 | 0.00 | 0.00 | 0.00 | 81 | 988.4 |
| 20260506023933 | 55 | 188 | 3.0 | 5.0 | 0.00 | 0.00 | 0.00 | 80 | 988.5 |
| 20260506023432 | 55 | 253 | 3.0 | 9.0 | 0.00 | 0.00 | 0.00 | 80 | 988.7 |
| 20260506022931 | 55 | 236 | 5.0 | 7.0 | 0.00 | 0.00 | 0.00 | 79 | 988.7 |
| 20260506022420 | 56 | 273 | 3.0 | 5.0 | 0.00 | 0.00 | 0.00 | 77 | 988.7 |
| 20260506021920 | 56 | 251 | 1.0 | 2.0 | 0.00 | 0.00 | 0.00 | 77 | 988.6 |
| 20260506021419 | 56 | 302 | 1.0 | 3.0 | 0.00 | 0.00 | 0.00 | 77 | 988.4 |
| 20260506020908 | 56 | 223 | 1.0 | 2.0 | 0.00 | 0.00 | 0.00 | 77 | 988.8 |
| 20260506020408 | 56 | 306 | 2.0 | 3.0 | 0.00 | 0.00 | 0.00 | 76 | 988.6 |
| 20260506015906 | 56 | 297 | 3.0 | 3.0 | 0.00 | 0.00 | 0.00 | 76 | 988.9 |
| 20260506015356 | 57 | 141 | 0.0 | 1.0 | 0.00 | 0.00 | 0.00 | 76 | 988.7 |
| 20260506014855 | 57 | 321 | 1.0 | 2.0 | 0.00 | 0.00 | 0.00 | 75 | 988.6 |
| 20260506014354 | 57 | 310 | 3.0 | 3.0 | 0.00 | 0.00 | 0.00 | 75 | 988.6 |
| 20260506013854 | 57 | 288 | 3.0 | 3.0 | 0.00 | 0.00 | 0.00 | 75 | 988.6 |
| 20260506013343 | 57 | 286 | 3.0 | 3.0 | 0.00 | 0.00 | 0.00 | 75 | 988.4 |
| 20260506012842 | 57 | 0 | 2.0 | 6.0 | 0.00 | 0.00 | 0.00 | 75 | 988.7 |
| 20260506012341 | 57 | 301 | 3.0 | 7.0 | 0.00 | 0.00 | 0.00 | 75 | 988.6 |
| 20260506011840 | 57 | 289 | 2.0 | 5.0 | 0.00 | 0.00 | 0.00 | 75 | 988.7 |
| 20260506011329 | 57 | 314 | 3.0 | 5.0 | 0.00 | 0.00 | 0.00 | 74 | 988.6 |
| 20260506010829 | 57 | 309 | 1.0 | 5.0 | 0.00 | 0.00 | 0.00 | 74 | 988.7 |
| 20260506010329 | 57 | 328 | 2.0 | 2.0 | 0.00 | 0.00 | 0.00 | 74 | 988.6 |
| 20260506005828 | 57 | 298 | 2.0 | 3.0 | 0.00 | 0.00 | 0.00 | 73 | 988.5 |
| 20260506005317 | 57 | 231 | 1.0 | 3.0 | 0.00 | 0.00 | 0.00 | 74 | 988.7 |
| 20260506004816 | 57 | 335 | 2.0 | 3.0 | 0.00 | 0.00 | 0.00 | 74 | 988.6 |
| 20260506004315 | 57 | 293 | 3.0 | 5.0 | 0.00 | 0.00 | 0.00 | 74 | 988.7 |
| 20260506003804 | 57 | 287 | 3.0 | 5.0 | 0.00 | 0.00 | 0.00 | 74 | 988.5 |
| 20260506003303 | 57 | 299 | 4.0 | 5.0 | 0.00 | 0.00 | 0.00 | 74 | 988.6 |
| 20260506002803 | 57 | 284 | 3.0 | 5.0 | 0.00 | 0.00 | 0.00 | 74 | 988.5 |
| 20260506002305 | 57 | 323 | 5.0 | 7.0 | 0.00 | 0.00 | 0.00 | 73 | 988.3 |
| 20260506001801 | 58 | 299 | 5.0 | 8.0 | 0.00 | 0.00 | 0.00 | 73 | 988.3 |
| 20260506001301 | 58 | 304 | 5.0 | 7.0 | 0.00 | 0.00 | 0.00 | 72 | 988.4 |
| 20260506000800 | 58 | 287 | 4.0 | 5.0 | 0.00 | 0.00 | 0.00 | 71 | 988.3 |
| 20260506000302 | 58 | 332 | 3.0 | 5.0 | 0.00 | 0.00 | 0.00 | 71 | 988.5 |
| 20260505235759 | 58 | 329 | 2.0 | 2.0 | 0.00 | 0.00 | 0.00 | 71 | 988.5 |
| 20260505235259 | 58 | 325 | 3.0 | 3.0 | 0.00 | 0.00 | 0.00 | 71 | 988.5 |
| 20260505234758 | 58 | 30 | 2.0 | 3.0 | 0.00 | 0.00 | 0.00 | 71 | 988.5 |
| 20260505234258 | 58 | 307 | 4.0 | 5.0 | 0.00 | 0.00 | 0.00 | 71 | 988.6 |
| 20260505233757 | 58 | 302 | 4.0 | 6.0 | 0.00 | 0.00 | 0.00 | 72 | 988.5 |
| 20260505233257 | 58 | 314 | 5.0 | 7.0 | 0.00 | 0.00 | 0.00 | 71 | 988.5 |
| 20260505232756 | 58 | 341 | 2.0 | 6.0 | 0.00 | 0.00 | 0.00 | 71 | 988.6 |
| 20260505232256 | 58 | 311 | 3.0 | 8.0 | 0.00 | 0.00 | 0.00 | 71 | 988.6 |
| 20260505231755 | 58 | 336 | 4.0 | 6.0 | 0.00 | 0.00 | 0.00 | 70 | 988.5 |
| 20260505231255 | 58 | 325 | 4.0 | 6.0 | 0.00 | 0.00 | 0.00 | 70 | 988.5 |
| 20260505230755 | 59 | 354 | 6.0 | 7.0 | 0.00 | 0.00 | 0.00 | 70 | 988.5 |
| 20260505230254 | 59 | 10 | 4.0 | 6.0 | 0.00 | 0.00 | 0.00 | 70 | 988.6 |
| 20260505225753 | 59 | 20 | 5.0 | 8.0 | 0.00 | 0.00 | 0.00 | 69 | 988.7 |
| 20260505225253 | 59 | 330 | 5.0 | 8.0 | 0.00 | 0.00 | 0.00 | 69 | 988.7 |
| 20260505224752 | 59 | 359 | 5.0 | 8.0 | 0.00 | 0.00 | 0.00 | 69 | 988.8 |
| 20260505224251 | 60 | 6 | 4.0 | 5.0 | 0.00 | 0.00 | 0.00 | 69 | 988.6 |
| 20260505223751 | 60 | 353 | 4.0 | 6.0 | 0.00 | 0.00 | 0.00 | 68 | 988.9 |
| 20260505223250 | 60 | 357 | 4.0 | 7.0 | 0.00 | 0.00 | 0.00 | 68 | 988.9 |
| 20260505222746 | 60 | 25 | 4.0 | 7.0 | 0.00 | 0.00 | 0.00 | 68 | 989.1 |
| 20260505222246 | 60 | 4 | 3.0 | 7.0 | 0.00 | 0.00 | 0.00 | 68 | 989.0 |
| 20260505221746 | 60 | 38 | 2.0 | 3.0 | 0.00 | 0.00 | 0.00 | 68 | 989.1 |
| 20260505221245 | 60 | 24 | 2.0 | 3.0 | 0.00 | 0.00 | 0.00 | 68 | 989.1 |
| 20260505220745 | 60 | 9 | 3.0 | 7.0 | 0.00 | 0.00 | 0.00 | 68 | 988.8 |
| 20260505220244 | 61 | 11 | 5.0 | 7.0 | 0.00 | 0.00 | 0.00 | 68 | 989.3 |
| 20260505215744 | 61 | 2 | 5.0 | 8.0 | 0.00 | 0.00 | 0.00 | 68 | 989.1 |
| 20260505215243 | 61 | 40 | 5.0 | 7.0 | 0.00 | 0.00 | 0.00 | 68 | 989.3 |
| 20260505214742 | 61 | 25 | 5.0 | 6.0 | 0.00 | 0.00 | 0.00 | 68 | 989.2 |
| 20260505214242 | 62 | 46 | 3.0 | 6.0 | 0.00 | 0.00 | 0.00 | 68 | 989.4 |
| 20260505213741 | 62 | 10 | 6.0 | 9.0 | 0.00 | 0.00 | 0.00 | 68 | 989.5 |
| 20260505213241 | 62 | 22 | 4.0 | 6.0 | 0.00 | 0.00 | 0.00 | 68 | 989.3 |
| 20260505212740 | 62 | 69 | 2.0 | 8.0 | 0.00 | 0.00 | 0.00 | 68 | 989.3 |
| 20260505212240 | 62 | 94 | 3.0 | 8.0 | 0.00 | 0.00 | 0.00 | 68 | 989.4 |
| 20260505211729 | 62 | 50 | 6.0 | 11.0 | 0.00 | 0.00 | 0.00 | 68 | 989.2 |
| 20260505211229 | 62 | 49 | 3.0 | 7.0 | 0.00 | 0.00 | 0.00 | 68 | 989.0 |
| 20260505210728 | 63 | 1 | 7.0 | 11.0 | 0.00 | 0.00 | 0.00 | 68 | 989.2 |
| 20260505210227 | 63 | 11 | 6.0 | 15.0 | 0.00 | 0.00 | 0.00 | 68 | 989.2 |
| 20260505205726 | 63 | 22 | 13.0 | 16.0 | 0.00 | 0.00 | 0.00 | 68 | 989.5 |
| 20260505205216 | 63 | 46 | 5.0 | 11.0 | 0.00 | 0.00 | 0.00 | 68 | 989.2 |
| 20260505204715 | 64 | 48 | 12.0 | 15.0 | 0.00 | 0.00 | 0.00 | 68 | 989.1 |
| 20260505204215 | 64 | 27 | 6.0 | 13.0 | 0.00 | 0.00 | 0.00 | 69 | 989.2 |
| 20260505203704 | 64 | 54 | 7.0 | 13.0 | 0.00 | 0.00 | 0.00 | 69 | 988.9 |
| 20260505203204 | 64 | 26 | 7.0 | 13.0 | 0.00 | 0.00 | 0.00 | 69 | 989.1 |
| 20260505202703 | 64 | 32 | 9.0 | 13.0 | 0.00 | 0.00 | 0.00 | 69 | 989.2 |
| 20260505202202 | 64 | 39 | 10.0 | 14.0 | 0.00 | 0.00 | 0.00 | 70 | 989.4 |
| 20260505201701 | 64 | 13 | 9.0 | 16.0 | 0.00 | 0.00 | 0.00 | 70 | 989.3 |
| 20260505201201 | 64 | 60 | 7.0 | 10.0 | 0.00 | 0.00 | 0.00 | 70 | 989.3 |
| 20260505200700 | 65 | 31 | 9.0 | 15.0 | 0.00 | 0.00 | 0.00 | 70 | 989.5 |
| 20260505200200 | 65 | 29 | 5.0 | 15.0 | 0.00 | 0.00 | 0.00 | 70 | 989.3 |
| 20260505195659 | 65 | 33 | 5.0 | 11.0 | 0.00 | 0.00 | 0.00 | 70 | 989.2 |
| 20260505195159 | 65 | 34 | 12.0 | 16.0 | 0.00 | 0.00 | 0.00 | 69 | 989.2 |
| 20260505194659 | 65 | 27 | 10.0 | 14.0 | 0.00 | 0.00 | 0.00 | 70 | 989.2 |
| 20260505194158 | 65 | 29 | 6.0 | 8.0 | 0.00 | 0.00 | 0.00 | 70 | 989.3 |
| 20260505193657 | 66 | 13 | 7.0 | 11.0 | 0.00 | 0.00 | 0.00 | 70 | 989.2 |
| 20260505193156 | 66 | 18 | 10.0 | 14.0 | 0.00 | 0.00 | 0.00 | 70 | 989.4 |
| 20260505192656 | 66 | 349 | 8.0 | 13.0 | 0.00 | 0.00 | 0.00 | 70 | 989.4 |
| 20260505192156 | 66 | 85 | 8.0 | 11.0 | 0.00 | 0.00 | 0.00 | 70 | 989.4 |
| 20260505191655 | 66 | 16 | 10.0 | 13.0 | 0.00 | 0.00 | 0.00 | 70 | 989.4 |
| 20260505191155 | 66 | 15 | 9.0 | 16.0 | 0.00 | 0.00 | 0.00 | 70 | 989.5 |
| 20260505190654 | 66 | 13 | 9.0 | 11.0 | 0.00 | 0.00 | 0.00 | 70 | 989.5 |
| 20260505190154 | 67 | 27 | 9.0 | 11.0 | 0.00 | 0.00 | 0.00 | 70 | 989.5 |
| 20260505185654 | 67 | 352 | 9.0 | 13.0 | 0.00 | 0.00 | 0.00 | 69 | 989.7 |
| 20260505185153 | 67 | 315 | 6.0 | 10.0 | 0.00 | 0.00 | 0.00 | 69 | 989.5 |
| 20260505184653 | 68 | 0 | 9.0 | 13.0 | 0.00 | 0.00 | 0.00 | 68 | 989.5 |
| 20260505184152 | 68 | 347 | 7.0 | 10.0 | 0.00 | 0.00 | 0.00 | 66 | 989.7 |
| 20260505183651 | 69 | 284 | 3.0 | 11.0 | 0.00 | 0.00 | 0.00 | 66 | 989.7 |
| 20260505183150 | 69 | 261 | 4.0 | 13.0 | 0.00 | 0.00 | 0.00 | 65 | 989.7 |
| 20260505182150 | 69 | 347 | 7.0 | 13.0 | 0.00 | 0.00 | 0.00 | 64 | 989.3 |
| 20260505181650 | 69 | 1 | 8.0 | 10.0 | 0.00 | 0.00 | 0.00 | 64 | 989.4 |
| 20260505181149 | 69 | 309 | 8.0 | 14.0 | 0.00 | 0.00 | 0.00 | 64 | 989.3 |
| 20260505180648 | 70 | 358 | 8.0 | 11.0 | 0.00 | 0.00 | 0.00 | 63 | 989.1 |
| 20260505180148 | 70 | 332 | 7.0 | 10.0 | 0.00 | 0.00 | 0.00 | 63 | 989.0 |
| 20260505175647 | 70 | 351 | 11.0 | 15.0 | 0.00 | 0.00 | 0.00 | 62 | 988.8 |
| 20260505175147 | 70 | 350 | 6.0 | 14.0 | 0.00 | 0.00 | 0.00 | 62 | 989.0 |
| 20260505174645 | 71 | 356 | 9.0 | 15.0 | 0.00 | 0.00 | 0.00 | 61 | 989.0 |
| 20260505174145 | 71 | 11 | 9.0 | 18.0 | 0.00 | 0.00 | 0.00 | 61 | 988.9 |
| 20260505173644 | 71 | 18 | 6.0 | 15.0 | 0.00 | 0.00 | 0.00 | 60 | 988.8 |
| 20260505173144 | 72 | 353 | 9.0 | 17.0 | 0.00 | 0.00 | 0.00 | 59 | 988.6 |
| 20260505172643 | 72 | 349 | 13.0 | 17.0 | 0.00 | 0.00 | 0.00 | 59 | 988.7 |
| 20260505172143 | 73 | 4 | 8.0 | 17.0 | 0.00 | 0.00 | 0.00 | 57 | 988.7 |
| 20260505171642 | 73 | 352 | 9.0 | 20.0 | 0.00 | 0.00 | 0.00 | 56 | 988.8 |
| 20260505171141 | 74 | 352 | 16.0 | 18.0 | 0.00 | 0.00 | 0.00 | 53 | 988.9 |
| 20260505170640 | 76 | 359 | 11.0 | 21.0 | 0.00 | 0.00 | 0.00 | 47 | 988.8 |
| 20260505170139 | 76 | 1 | 3.0 | 7.0 | 0.00 | 0.00 | 0.00 | 38 | 988.6 |
| 20260505165639 | 77 | 23 | 5.0 | 9.0 | 0.00 | 0.00 | 0.00 | 37 | 988.6 |
| 20260505165139 | 77 | 43 | 7.0 | 9.0 | 0.00 | 0.00 | 0.00 | 37 | 988.6 |
| 20260505164638 | 77 | 4 | 11.0 | 13.0 | 0.00 | 0.00 | 0.00 | 37 | 988.5 |
| 20260505164138 | 77 | 358 | 7.0 | 11.0 | 0.00 | 0.00 | 0.00 | 37 | 988.5 |
| 20260505163638 | 77 | 21 | 5.0 | 13.0 | 0.00 | 0.00 | 0.00 | 36 | 988.5 |
| 20260505163138 | 78 | 8 | 4.0 | 10.0 | 0.00 | 0.00 | 0.00 | 36 | 988.7 |
| 20260505162637 | 78 | 349 | 5.0 | 7.0 | 0.00 | 0.00 | 0.00 | 35 | 988.6 |
| 20260505162137 | 78 | 34 | 3.0 | 7.0 | 0.00 | 0.00 | 0.00 | 36 | 988.7 |
| 20260505161636 | 79 | 55 | 6.0 | 10.0 | 0.00 | 0.00 | 0.00 | 35 | 988.6 |
| 20260505161136 | 79 | 5 | 3.0 | 3.0 | 0.00 | 0.00 | 0.00 | 33 | 988.7 |
| 20260505160635 | 80 | 8 | 4.0 | 5.0 | 0.00 | 0.00 | 0.00 | 32 | 988.9 |
| 20260505160135 | 79 | 74 | 0.0 | 3.0 | 0.00 | 0.00 | 0.00 | 33 | 988.7 |
| 20260505153131 | 80 | 113 | 0.0 | 1.0 | 0.00 | 0.00 | 0.00 | 32 | 988.9 |
| 20260505152631 | 79 | 273 | 7.0 | 8.0 | 0.00 | 0.00 | 0.00 | 32 | 988.9 |
| 20260505152131 | 79 | 263 | 3.0 | 5.0 | 0.00 | 0.00 | 0.00 | 32 | 988.9 |
| 20260505151620 | 79 | 4 | 7.0 | 8.0 | 0.00 | 0.00 | 0.00 | 32 | 989.0 |
| 20260505151119 | 79 | 29 | 3.0 | 6.0 | 0.00 | 0.00 | 0.00 | 33 | 988.9 |
| 20260505150609 | 79 | 4 | 4.0 | 8.0 | 0.00 | 0.00 | 0.00 | 33 | 989.0 |
| 20260505150109 | 79 | 32 | 6.0 | 7.0 | 0.00 | 0.00 | 0.00 | 33 | 988.8 |
| 20260505140603 | 78 | 94 | 0.0 | 0.0 | 0.00 | 0.00 | 0.00 | 33 | 989.3 |
| 20260505125006 | 80 | 270 | 2.0 | 5.0 | 0.00 | 0.00 | 0.00 | 32 | 989.9 |
| 20260505124506 | 79 | 208 | 4.0 | 5.0 | 0.00 | 0.00 | 0.00 | 34 | 989.9 |
| 20260505124005 | 78 | 216 | 3.0 | 7.0 | 0.00 | 0.00 | 0.00 | 34 | 990.0 |
| 20260505123505 | 78 | 328 | 3.0 | 5.0 | 0.00 | 0.00 | 0.00 | 35 | 989.9 |
| 20260505123005 | 79 | 27 | 5.0 | 6.0 | 0.00 | 0.00 | 0.00 | 34 | 990.2 |
| 20260505122503 | 78 | 49 | 1.0 | 2.0 | 0.00 | 0.00 | 0.00 | 34 | 990.2 |
| 20260505122003 | 79 | 280 | 4.0 | 5.0 | 0.00 | 0.00 | 0.00 | 34 | 990.3 |
| 20260505121502 | 78 | 163 | 3.0 | 5.0 | 0.00 | 0.00 | 0.00 | 35 | 990.4 |
| 20260505121001 | 79 | 303 | 4.0 | 6.0 | 0.00 | 0.00 | 0.00 | 34 | 990.3 |
| 20260505120501 | 78 | 349 | 4.0 | 5.0 | 0.00 | 0.00 | 0.00 | 34 | 990.4 |
| 20260505120001 | 78 | 16 | 2.0 | 5.0 | 0.00 | 0.00 | 0.00 | 34 | 990.3 |
| 20260505115501 | 78 | 45 | 1.0 | 1.0 | 0.00 | 0.00 | 0.00 | 34 | 990.4 |
| 20260505115000 | 78 | 68 | 0.0 | 1.0 | 0.00 | 0.00 | 0.00 | 34 | 990.4 |
| 20260505114459 | 77 | 183 | 1.0 | 3.0 | 0.00 | 0.00 | 0.00 | 35 | 990.5 |
| 20260505113958 | 77 | 188 | 3.0 | 3.0 | 0.00 | 0.00 | 0.00 | 35 | 990.6 |
| 20260505113457 | 76 | 125 | 2.0 | 5.0 | 0.00 | 0.00 | 0.00 | 37 | 990.6 |
| 20260505112956 | 76 | 113 | 3.0 | 3.0 | 0.00 | 0.00 | 0.00 | 37 | 990.6 |
| 20260505112456 | 77 | 136 | 7.0 | 8.0 | 0.00 | 0.00 | 0.00 | 37 | 990.6 |
| 20260505111955 | 77 | 182 | 3.0 | 7.0 | 0.00 | 0.00 | 0.00 | 36 | 990.5 |
| 20260505111445 | 76 | 332 | 1.0 | 5.0 | 0.00 | 0.00 | 0.00 | 37 | 990.6 |
| 20260505110944 | 76 | 147 | 7.0 | 9.0 | 0.00 | 0.00 | 0.00 | 38 | 990.7 |
| 20260505110433 | 76 | 128 | 5.0 | 7.0 | 0.00 | 0.00 | 0.00 | 38 | 990.7 |
| 20260505101811 | 75 | 263 | 1.0 | 3.0 | 0.00 | 0.00 | 0.00 | 40 | 991.2 |
| 20260505101310 | 75 | 349 | 1.0 | 2.0 | 0.00 | 0.00 | 0.00 | 40 | 991.3 |
| 20260505100810 | 74 | 93 | 0.0 | 2.0 | 0.00 | 0.00 | 0.00 | 42 | 991.2 |
| 20260505100308 | 74 | 65 | 0.0 | 1.0 | 0.00 | 0.00 | 0.00 | 42 | 991.4 |
| 20260505095808 | 75 | 72 | 1.0 | 3.0 | 0.00 | 0.00 | 0.00 | 41 | 991.3 |
| 20260505095257 | 73 | 91 | 0.0 | 1.0 | 0.00 | 0.00 | 0.00 | 42 | 991.4 |
| 20260505094757 | 73 | 18 | 0.0 | 1.0 | 0.00 | 0.00 | 0.00 | 42 | 991.5 |
| 20260505094256 | 73 | 1 | 2.0 | 3.0 | 0.00 | 0.00 | 0.00 | 42 | 991.5 |
| 20260505093755 | 72 | 10 | 2.0 | 3.0 | 0.00 | 0.00 | 0.00 | 42 | 991.6 |
| 20260505093244 | 72 | 335 | 2.0 | 5.0 | 0.00 | 0.00 | 0.00 | 44 | 991.5 |
| 20260505092744 | 73 | 38 | 1.0 | 3.0 | 0.00 | 0.00 | 0.00 | 42 | 991.7 |
| 20260505092243 | 73 | 140 | 2.0 | 5.0 | 0.00 | 0.00 | 0.00 | 44 | 991.5 |
| 20260505091742 | 72 | 144 | 2.0 | 3.0 | 0.00 | 0.00 | 0.00 | 45 | 991.6 |
| 20260505091241 | 71 | 123 | 1.0 | 2.0 | 0.00 | 0.00 | 0.00 | 47 | 991.8 |
| 20260505090740 | 71 | 317 | 1.0 | 1.0 | 0.00 | 0.00 | 0.00 | 44 | 991.7 |
| 20260505090240 | 70 | 185 | 3.0 | 3.0 | 0.00 | 0.00 | 0.00 | 47 | 991.7 |
| 20260505085739 | 70 | 172 | 2.0 | 3.0 | 0.00 | 0.00 | 0.00 | 53 | 991.8 |
| 20260505085239 | 71 | 161 | 1.0 | 5.0 | 0.00 | 0.00 | 0.00 | 53 | 991.9 |
| 20260505084739 | 70 | 148 | 1.0 | 1.0 | 0.00 | 0.00 | 0.00 | 55 | 992.0 |
| 20260505084239 | 68 | 143 | 0.0 | 0.0 | 0.00 | 0.00 | 0.00 | 57 | 992.0 |
| 20260505083737 | 69 | 144 | 2.0 | 3.0 | 0.00 | 0.00 | 0.00 | 57 | 992.0 |
| 20260505083227 | 68 | 60 | 0.0 | 1.0 | 0.00 | 0.00 | 0.00 | 57 | 992.2 |
| 20260505082727 | 68 | 42 | 1.0 | 2.0 | 0.00 | 0.00 | 0.00 | 59 | 992.2 |
| 20260505082216 | 68 | 52 | 1.0 | 2.0 | 0.00 | 0.00 | 0.00 | 59 | 992.2 |
| 20260505081716 | 67 | 127 | 0.0 | 1.0 | 0.00 | 0.00 | 0.00 | 61 | 992.4 |
| 20260505081215 | 67 | 115 | 1.0 | 2.0 | 0.00 | 0.00 | 0.00 | 62 | 992.4 |
| 20260505080714 | 65 | 114 | 0.0 | 3.0 | 0.00 | 0.00 | 0.00 | 66 | 992.6 |
| 20260505080214 | 64 | 69 | 0.0 | 3.0 | 0.00 | 0.00 | 0.00 | 66 | 992.3 |
| 20260505075713 | 64 | 66 | 1.0 | 2.0 | 0.00 | 0.00 | 0.00 | 66 | 992.4 |
| 20260505075213 | 65 | 59 | 2.0 | 2.0 | 0.00 | 0.00 | 0.00 | 65 | 992.5 |
| 20260505074712 | 64 | 27 | 0.0 | 0.0 | 0.00 | 0.00 | 0.00 | 67 | 992.6 |
| 20260505074211 | 64 | 39 | 0.0 | 1.0 | 0.00 | 0.00 | 0.00 | 68 | 992.6 |
| 20260505073710 | 64 | 77 | 0.0 | 1.0 | 0.00 | 0.00 | 0.00 | 68 | 992.6 |
| 20260505073209 | 63 | 77 | 0.0 | 0.0 | 0.00 | 0.00 | 0.00 | 69 | 992.6 |
| 20260505072709 | 63 | 78 | 1.0 | 1.0 | 0.00 | 0.00 | 0.00 | 69 | 992.5 |
| 20260505072208 | 62 | 63 | 0.0 | 0.0 | 0.00 | 0.00 | 0.00 | 69 | 992.7 |
| 20260505071708 | 62 | 74 | 0.0 | 2.0 | 0.00 | 0.00 | 0.00 | 71 | 992.6 |
| 20260505071207 | 62 | 107 | 2.0 | 3.0 | 0.00 | 0.00 | 0.00 | 72 | 992.3 |
| 20260505070707 | 61 | 56 | 4.0 | 5.0 | 0.00 | 0.00 | 0.00 | 72 | 992.4 |
| 20260505070206 | 61 | 67 | 2.0 | 3.0 | 0.00 | 0.00 | 0.00 | 73 | 992.5 |
| 20260505065706 | 61 | 44 | 3.0 | 3.0 | 0.00 | 0.00 | 0.00 | 72 | 992.6 |
| 20260505065206 | 61 | 60 | 0.0 | 2.0 | 0.00 | 0.00 | 0.00 | 73 | 992.5 |
| 20260505064704 | 61 | 61 | 3.0 | 3.0 | 0.00 | 0.00 | 0.00 | 73 | 992.5 |
| 20260505064204 | 61 | 70 | 2.0 | 3.0 | 0.00 | 0.00 | 0.00 | 72 | 992.7 |
| 20260505063704 | 61 | 78 | 1.0 | 3.0 | 0.00 | 0.00 | 0.00 | 72 | 992.6 |
| 20260505063203 | 61 | 65 | 0.0 | 1.0 | 0.00 | 0.00 | 0.00 | 73 | 992.6 |
| 20260505062702 | 60 | 36 | 0.0 | 2.0 | 0.00 | 0.00 | 0.00 | 73 | 992.9 |
| 20260505062202 | 60 | 58 | 1.0 | 3.0 | 0.00 | 0.00 | 0.00 | 74 | 992.8 |
| 20260505061701 | 60 | 59 | 2.0 | 2.0 | 0.00 | 0.00 | 0.00 | 74 | 992.7 |
| 20260505061200 | 59 | 38 | 2.0 | 2.0 | 0.00 | 0.00 | 0.00 | 75 | 992.8 |
| 20260505060700 | 59 | 46 | 5.0 | 6.0 | 0.00 | 0.00 | 0.00 | 74 | 992.8 |
| 20260505060159 | 59 | 52 | 1.0 | 3.0 | 0.00 | 0.00 | 0.00 | 74 | 992.8 |
| 20260505055658 | 60 | 58 | 0.0 | 1.0 | 0.00 | 0.00 | 0.00 | 74 | 992.8 |
| 20260505055157 | 59 | 47 | 1.0 | 2.0 | 0.00 | 0.00 | 0.00 | 73 | 993.0 |
| 20260505054656 | 59 | 108 | 0.0 | 1.0 | 0.00 | 0.00 | 0.00 | 74 | 992.9 |
| 20260505054156 | 59 | 67 | 2.0 | 3.0 | 0.00 | 0.00 | 0.00 | 74 | 993.2 |
| 20260505053655 | 59 | 98 | 2.0 | 5.0 | 0.00 | 0.00 | 0.00 | 74 | 993.0 |
| 20260505053155 | 59 | 81 | 0.0 | 2.0 | 0.00 | 0.00 | 0.00 | 74 | 993.2 |
| 20260505052654 | 60 | 98 | 0.0 | 2.0 | 0.00 | 0.00 | 0.00 | 73 | 993.1 |
| 20260505052154 | 60 | 78 | 1.0 | 1.0 | 0.00 | 0.00 | 0.00 | 73 | 993.0 |
| 20260505051654 | 60 | 95 | 1.0 | 2.0 | 0.00 | 0.00 | 0.00 | 72 | 993.2 |
| 20260505051154 | 60 | 97 | 0.0 | 0.0 | 0.00 | 0.00 | 0.00 | 73 | 993.1 |
| 20260505050653 | 59 | 98 | 0.0 | 0.0 | 0.00 | 0.00 | 0.00 | 74 | 993.3 |
| 20260505050153 | 57 | 98 | 0.0 | 0.0 | 0.00 | 0.00 | 0.00 | 77 | 993.2 |
| 20260505041637 | 55 | 146 | 1.0 | 3.0 | 0.00 | 0.00 | 0.00 | 81 | 993.2 |
| 20260505041137 | 55 | 134 | 5.0 | 6.0 | 0.00 | 0.00 | 0.00 | 81 | 993.4 |
| 20260505040637 | 55 | 153 | 3.0 | 3.0 | 0.00 | 0.00 | 0.00 | 80 | 993.4 |
| 20260505040135 | 55 | 152 | 3.0 | 3.0 | 0.00 | 0.00 | 0.00 | 81 | 993.3 |
| 20260505035635 | 55 | 152 | 3.0 | 3.0 | 0.00 | 0.00 | 0.00 | 83 | 993.4 |
| 20260505035135 | 55 | 152 | 2.0 | 3.0 | 0.00 | 0.00 | 0.00 | 84 | 993.4 |
| 20260505034633 | 55 | 147 | 3.0 | 3.0 | 0.00 | 0.00 | 0.00 | 84 | 993.2 |
| 20260505034133 | 55 | 141 | 3.0 | 3.0 | 0.00 | 0.00 | 0.00 | 84 | 993.4 |